Meteopurmerend
purmerend
Purmerend - Baaienwijk



My webcam  My webcam


waarschuwing voor Onweer Meer informatie blitzortung!


Regen radar Meer informatie rain snow radar


Bezoek onze andere website:

CandyAppleRed WebdesignWebdesign Purmerend Candy Apple Red

MeteopurmerendBlog

Template documentation
and downloads



Onweer van: 19-06-2019 10:00 tot: 23:00 waarschuwing voor: Onweer niveau: Geel info button
Enkele onweersbuien, mogelijk met hagel en windstoten tot ca. 75 km/uur.Verkeer en buitenactiviteiten kunnen hinder ondervinden.Mijd open water en open gebied, schuil niet onder bomen.Volg weerberichten en waarschuwingen.

15 daagse weersverwachting Baden (AT)

  • Overzicht
  • Per uur
  • 15 dagen
  • Extra
  • Vergelijk
  • Kaarten
  • Dagkaart
  • Meer »
  • Info
  • Statistieken
  • Directe link
    Temp 6h Neerslag Wind  
 04:56     20:57    Daglengte: 16:01 Vandaag
14:00
29°
 
3
20:00
24°
1.4 mm
2
 04:57     20:58    Daglengte: 16:01 Morgen
02:00
19°
 
1
08:00
22°
 
1
14:00
29°
 
2
20:00
25°
2.7 mm
2
 04:57     20:58    Daglengte: 16:01 Vrijdag 21 Jun
02:00
20°
 
4
08:00
21°
0.6 mm
4
14:00
26°
 
3
20:00
24°
 
2
 04:57     20:58    Daglengte: 16:01 Zaterdag 22 Jun
02:00
19°
 
3
08:00
20°
 
3
Locatie info
Region: Niederösterreich
Latitude: 48.0064°N
Longitude: 16.2326°E
230 masl
Postcode: 2500
Temp/Neerslag /Baro Onweer/Dauwpunt
    Temp Baro 1h Neerslag Dauwpunt Wind UV Bewolking  
 04:56     20:57    Daglengte: 16:01 Vandaag
13:00
28°
Voelt als: 28.0°
1011.7 hPa   14.7°
4
Windvlaag: 2 m/s
32%
14:00
29°
Voelt als: 28.7°
1011.2 hPa
63%
14.7°
3
Windvlaag: 2 m/s
30%
15:00
29°
Voelt als: 29.1°
1010.8 hPa
36%
15.2°
3
Windvlaag: 2.2 m/s
32%
16:00
27°
1010.8 hPa 1.4 mm
60%
18.3°
3
Windvlaag: 2.1 m/s
26%
17:00
26°
1010.5 hPa
67%
20.5°
3
Windvlaag: 2.1 m/s
26%
18:00
26°
1010.2 hPa
71%
19.2°
2
Windvlaag: 2 m/s
36%
19:00
26°
1010.2 hPa
78%
18.2°
2
Windvlaag: 0.8 m/s
52%
20:00
24°
1010.5 hPa
66%
18.4°
2
Windvlaag: 1.3 m/s
50%
21:00
23°
1010.8 hPa
17%
18.4°
2
Windvlaag: 1.2 m/s
47%
22:00
22°
1011.1 hPa
14%
18.6°
1
Windvlaag: 0.7 m/s
50%
23:00
21°
1011.3 hPa
14%
18.7°
1
Windvlaag: 0.5 m/s
43%
 04:57     20:58    Daglengte: 16:01 Morgen
00:00
20°
1011.2 hPa
14%
18.5°
1
Windvlaag: 0.1 m/s
25%
01:00
20°
1011.1 hPa
14%
18.3°
1
Windvlaag: -0.2 m/s
37%
02:00
19°
1011.0 hPa
14%
17.9°
1
Windvlaag: 0.1 m/s
36%
03:00
19°
1011.0 hPa
14%
17.8°
1
Windvlaag: 0.2 m/s
7%
04:00
18°
1011.3 hPa
14%
17.4°
2
Windvlaag: 0.1 m/s
8%
05:00
18°
1011.4 hPa
14%
17.3°
1
Windvlaag: 0.1 m/s
28%
06:00
19°
1011.7 hPa
14%
17.2°
1
Windvlaag: 0.1 m/s
26%
07:00
20°
1011.9 hPa
14%
18.1°
1
Windvlaag: 0.1 m/s
32%
08:00
22°
1012.1 hPa
14%
17.8°
1
Windvlaag: -0.3 m/s
16%
09:00
23°
1012.0 hPa
14%
17.9°
1
Windvlaag: 0.1 m/s
19%
10:00
25°
1011.8 hPa
14%
17.9°
2
Windvlaag: 0.3 m/s
10%
11:00
26°
1011.7 hPa
17%
18.3°
2
Windvlaag: 0.3 m/s
17%
12:00
27°
1011.4 hPa
22%
18.4°
2
Windvlaag: -0.2 m/s
38%
13:00
28°
1011.3 hPa
73%
17.1°
2
Windvlaag: -0.5 m/s
31%
14:00
29°
1010.9 hPa
36%
17.3°
2
Windvlaag: -1.6 m/s
26%
15:00
29°
1010.5 hPa
74%
16.7°
2
Windvlaag: -1.5 m/s
33%
16:00
28°
1010.5 hPa 0.8 mm
79%
17.1°
2
Windvlaag: -1.2 m/s
52%
17:00
27°
1010.5 hPa 1.8 mm
19%
15.7°
2
Windvlaag: -0.4 m/s
61%
18:00
26°
1010.7 hPa
16%
16.7°
2
Windvlaag: 1.3 m/s
36%
19:00
26°
1011.0 hPa
29%
16.5°
2
Windvlaag: 1 m/s
37%
20:00
25°
1011.6 hPa
82%
17.5°
2
Windvlaag: 1.3 m/s
46%
21:00
23°
1012.0 hPa
80%
18.6°
1
Windvlaag: 0.8 m/s
41%
22:00
22°
1012.3 hPa
15%
18.5°
1
Windvlaag: 0.3 m/s
25%
23:00
22°
1012.6 hPa
14%
18.1°
1
Windvlaag: 1.1 m/s
22%
 04:57     20:58    Daglengte: 16:01 Vrijdag 21 Jun
00:00
20°
1013.1 hPa
24%
18.2°
2
Windvlaag: 1 m/s
15%
01:00
20°
1013.3 hPa
74%
17.3°
3
Windvlaag: 0.9 m/s
50%
02:00
20°
1013.4 hPa
80%
17.0°
4
Windvlaag: 0.9 m/s
32%
03:00
20°
1013.4 hPa
80%
16.7°
4
Windvlaag: 0.8 m/s
23%
04:00
19°
1013.6 hPa
73%
16.4°
4
Windvlaag: 0.7 m/s
15%
05:00
19°
1013.9 hPa
64%
16.2°
4
Windvlaag: 0.6 m/s
31%
06:00
20°
1014.4 hPa 0.6 mm
18%
16.2°
4
Windvlaag: -0.1 m/s
59%
07:00
20°
1014.8 hPa
14%
16.2°
4
Windvlaag: -0.2 m/s
41%
08:00
21°
1015.1 hPa
14%
17.1°
4
Windvlaag: -0.8 m/s
38%
09:00
22°
1015.4 hPa
14%
17.5°
4
Windvlaag: -0.9 m/s
35%
10:00
24°
1015.3 hPa
25%
17.4°
4
Windvlaag: -0.9 m/s
27%
11:00
24°
1015.9 hPa
48%
17.4°
4
Windvlaag: -1.3 m/s
40%
12:00
25°
1015.8 hPa
97%
17.1°
3
Windvlaag: -1.8 m/s
51%
13:00
25°
1015.5 hPa
32%
17.4°
3
Windvlaag: -2.1 m/s
52%
14:00
26°
1014.8 hPa
30%
17.2°
3
Windvlaag: -2.4 m/s
62%
15:00
26°
1014.4 hPa
75%
16.7°
3
Windvlaag: -2.4 m/s
73%
16:00
26°
1014.4 hPa
94%
15.6°
3
Windvlaag: -2.7 m/s
79%
17:00
26°
1014.3 hPa
100%
13.9°
3
Windvlaag: -2.8 m/s
72%
18:00
25°
1014.7 hPa
97%
15.1°
2
Windvlaag: -3 m/s
62%
19:00
24°
1015.1 hPa
94%
17.0°
2
Windvlaag: -2.5 m/s
62%
20:00
24°
1015.4 hPa
46%
18.2°
2
Windvlaag: -2.1 m/s
83%
21:00
22°
1015.8 hPa
82%
18.0°
2
Windvlaag: -1.5 m/s
64%
22:00
21°
1016.3 hPa
32%
18.6°
2
Windvlaag: -1.2 m/s
49%
23:00
20°
1016.7 hPa
24%
18.3°
2
Windvlaag: -1.6 m/s
61%
 04:57     20:58    Daglengte: 16:01 Zaterdag 22 Jun
00:00
20°
1016.9 hPa
22%
17.7°
3
Windvlaag: -1.8 m/s
75%
01:00
20°
1016.8 hPa
22%
17.0°
3
Windvlaag: -1.6 m/s
31%
02:00
19°
1017.0 hPa
22%
16.2°
3
Windvlaag: -1.2 m/s
57%
03:00
19°
1017.2 hPa
21%
16.0°
3
Windvlaag: -1.6 m/s
61%
04:00
19°
1017.2 hPa
21%
15.8°
3
Windvlaag: -1.8 m/s
78%
05:00
19°
1017.4 hPa
21%
15.8°
3
Windvlaag: -2.1 m/s
83%
06:00
19°
1017.7 hPa
22%
16.5°
3
Windvlaag: -2.2 m/s
73%
07:00
19°
1017.9 hPa
25%
17.0°
3
Windvlaag: -1.7 m/s
72%
08:00
20°
1018.1 hPa
43%
17.1°
3
Windvlaag: -2 m/s
76%
09:00
21°
1017.9 hPa
97%
17.7°
3
Windvlaag: 2.9 m/s
75%
10:00
22°
1017.6 hPa
100%
17.8°
3
Windvlaag: 2.6 m/s
72%
11:00
23°
1017.3 hPa
100%
18.1°
3
Windvlaag: 2.7 m/s
54%
12:00
24°
1017.1 hPa
97%
18.4°
3
Windvlaag: 3.1 m/s
60%
Temp/Neerslag /Baro Onweer/Dauwpunt
    Temp Baro Neerslag Dauwpunt Wind Bewolking  
 04:56     20:57    Daglengte: 16:01 Vandaag
14:00
29°
Voelt als: 28.7°
1011.2 hPa   14.7°
3
30%
17:00
26°
1010.5 hPa 1.4 mm 20.5°
3
26%
20:00
24°
1010.5 hPa   18.4°
2
50%
23:00
21°
1011.3 hPa   18.7°
1
43%
 04:57     20:58    Daglengte: 16:01 Morgen
02:00
19°
1011.0 hPa   17.9°
1
36%
05:00
18°
1011.4 hPa   17.3°
1
28%
08:00
22°
1012.1 hPa   17.8°
1
16%
11:00
26°
1011.7 hPa   18.3°
2
17%
14:00
29°
1010.9 hPa   17.3°
2
26%
17:00
27°
1010.5 hPa 2.7 mm 15.7°
2
61%
20:00
25°
1011.6 hPa   17.5°
2
46%
23:00
22°
1012.6 hPa   18.1°
1
22%
 04:57     20:58    Daglengte: 16:01 Vrijdag 21 Jun
02:00
20°
1013.4 hPa   17.0°
4
32%
05:00
19°
1013.9 hPa   16.2°
4
31%
08:00
21°
1015.1 hPa 0.6 mm 17.1°
4
38%
11:00
24°
1015.9 hPa   17.4°
4
40%
14:00
26°
1014.8 hPa   17.2°
3
62%
17:00
26°
1014.3 hPa   13.9°
3
72%
20:00
24°
1015.4 hPa   18.2°
2
83%
23:00
20°
1016.7 hPa   18.3°
2
61%
 04:57     20:58    Daglengte: 16:01 Zaterdag 22 Jun
02:00
19°
1017.0 hPa   16.2°
3
57%
05:00
19°
1017.4 hPa   15.8°
3
83%
08:00
20°
1018.1 hPa   17.1°
3
76%
11:00
23°
1017.3 hPa   18.1°
3
54%
14:00
25°
1016.4 hPa   18.6°
2
87%
17:00
22°
1016.1 hPa 19.7 mm 18.5°
1
91%
20:00
20°
1015.9 hPa 26.0 mm 18.1°
1
92%
23:00
19°
1016.0 hPa 26.7 mm 17.9°
2
92%
 04:57     20:58    Daglengte: 16:01 Zondag 23 Jun
02:00
18°
1016.0 hPa 27.3 mm 17.6°
2
92%
05:00
18°
1016.3 hPa 27.3 mm 17.6°
2
92%
08:00
18°
1016.6 hPa 27.3 mm 17.7°
3
92%
11:00
20°
1017.0 hPa 27.5 mm 18.1°
4
74%
14:00
22°
1017.3 hPa 27.7 mm 18.5°
4
55%
17:00
22°
1017.6 hPa 27.7 mm 17.4°
4
73%
20:00
21°
1018.1 hPa 27.8 mm 16.3°
4
91%
23:00
21°
1019.0 hPa 28.2 mm 14.2°
4
90%
 04:58     20:58    Daglengte: 16:00 Maandag 24 Jun
02:00
20°
1019.8 hPa 28.2 mm 12.0°
4
89%
05:00
20°
1020.7 hPa 28.2 mm 11.8°
5
89%
08:00
19°
1021.5 hPa 28.2 mm 11.5°
5
89%
11:00
22°
1021.5 hPa 28.2 mm 13.3°
5
88%
14:00
25°
1021.3 hPa 28.2 mm 15.1°
5
87%
17:00
24°
1021.6 hPa 28.4 mm 15.2°
4
59%
20:00
24°
1021.9 hPa 28.6 mm 15.3°
3
32%
23:00
21°
1022.8 hPa 28.6 mm 14.3°
3
22%
 04:58     20:58    Daglengte: 16:00 Dinsdag 25 Jun
02:00
19°
1023.7 hPa 28.6 mm 13.2°
3
12%
05:00
20°
1024.2 hPa 28.6 mm 13.4°
3
10%
08:00
21°
1024.7 hPa 28.6 mm 13.7°
3
9%
11:00
24°
1024.4 hPa 28.6 mm 15.5°
3
4%
14:00
27°
1024.1 hPa 28.6 mm 17.1°
2
0%
17:00
27°
1023.8 hPa 28.6 mm 18.6°
2
0%
20:00
26°
1023.5 hPa 28.6 mm 19.8°
1
1%
23:00
23°
1024.2 hPa 28.6 mm 18.7°
1
1%
 04:58     20:58    Daglengte: 16:00 Woensdag 26 Jun
02:00
20°
1024.7 hPa 28.6 mm 17.3°
1
1%
05:00
21°
1024.8 hPa 28.6 mm 17.7°
1
4%
08:00
23°
1024.9 hPa 28.6 mm 18.0°
1
6%
11:00
26°
1024.3 hPa   18.6°
2
12%
14:00
29°
1023.7 hPa 57.2 mm 18.6°
3
17%
20:00
27°
1022.0 hPa 57.2 mm 18.2°
3
0%
 04:59     20:58    Daglengte: 15:59 Donderdag 27 Jun
02:00
21°
1021.7 hPa 57.2 mm 16.8°
2
0%
08:00
24°
1020.3 hPa 57.2 mm 18.4°
2
23%
14:00
31°
1018.2 hPa 57.2 mm 18.7°
3
3%
20:00
28°
1016.6 hPa 57.2 mm 20.0°
2
0%
 04:59     20:58    Daglengte: 15:59 Vrijdag 28 Jun
02:00
21°
1016.5 hPa 57.2 mm 19.0°
2
0%
08:00
29°
1015.6 hPa 57.2 mm 18.0°
3
0%
14:00
36°
1014.3 hPa 57.2 mm 16.5°
3
0%
20:00
31°
1012.9 hPa 57.2 mm 20.6°
2
6%
 05:00     20:58    Daglengte: 15:58 Zaterdag 29 Jun
02:00
25°
1012.7 hPa 57.2 mm 15.8°
3
1%
08:00
22°
1013.4 hPa 0.7 mm 16.5°
2
21%
14:00
28°
1012.5 hPa 1.0 mm 15.5°
2
18%
20:00
25°
1012.1 hPa 0.2 mm 17.2°
2
32%
 05:00     20:58    Daglengte: 15:58 Zondag 30 Jun
02:00
18°
1013.6 hPa 0.4 mm 13.9°
1
36%
08:00
21°
1014.0 hPa 0.4 mm 14.9°
1
30%
14:00
27°
1012.8 hPa 1.1 mm 15.8°
0
36%
20:00
24°
1012.2 hPa 2.5 mm 17.7°
0
52%
 05:01     20:58    Daglengte: 15:57 Maandag 01 Jul
02:00
18°
1013.4 hPa 1.4 mm 15.4°
1
50%
08:00
20°
1013.7 hPa 1.4 mm 15.9°
2
37%
14:00
26°
1012.4 hPa 1.4 mm 15.7°
1
34%
20:00
23°
1011.9 hPa 2.2 mm 16.9°
1
54%
 05:02     20:58    Daglengte: 15:56 Dinsdag 02 Jul
02:00
17°
1013.2 hPa 0.8 mm 14.1°
2
42%
08:00
19°
1013.9 hPa 1.0 mm 14.8°
3
28%
14:00
25°
1012.9 hPa 0.8 mm 14.6°
2
34%
20:00
22°
1012.8 hPa 1.3 mm 15.5°
1
52%
 05:02     20:57    Daglengte: 15:55 Woensdag 03 Jul
02:00
16°
1014.2 hPa 1.3 mm 13.3°
2
43%
08:00
18°
1014.9 hPa 1.5 mm 14.3°
3
42%
14:00
23°
1014.6 hPa 2.9 mm 14.0°
2
46%
20:00
20°
1014.5 hPa 2.7 mm 15.0°
2
43%
 05:03     20:57    Daglengte: 15:54 Donderdag 04 Jul
02:00
15°
1015.7 hPa 2.7 mm 12.1°
2
40%
08:00
18°
1016.3 hPa 1.5 mm 13.0°
2
38%
  CAPE Lifted Index Hail Supercell Tornado SRH 3km CL BTM PRES CL TOP PRES Swiss DWD icon SMHI TS
 04:56     20:57    Daglengte: 16:01 Vandaag
13:00 1302 J/kg -4.5 K 0 % 0 % 0 % 0 m²/s² 0 0 -2.64 2
14:00 1232 J/kg -4.5 K 0 % 0 % 0 % 0 m²/s² 0 0 -2.37 2
15:00 1174 J/kg -4.2 K 0 % 0 % 0 % 0 m²/s² 0 0 -1.8 2
16:00 1110 J/kg -4.2 K 0 % 0 % 0 % 0 m²/s² 0 0 -1.56 1
17:00 1255 J/kg -4.4 K 0 % 0 % 0 % 0 m²/s² 0 0 -1.76 2
18:00 1346 J/kg -4.9 K 0 % 0 % 0 % 0 m²/s² 0 0 -2.2 2
19:00 1412 J/kg -5.3 K 0 % 0 % 0 % 0 m²/s² 0 0 -2.84 3
20:00 447 J/kg -3.8 K 0 % 0 % 0 % 0 m²/s² 0 0 -1.16 2
21:00 156 J/kg -2.1 K 0 % 0 % 0 % 0 m²/s² 0 0 0.3 3
22:00 0 J/kg -1.3 K 0 % 0 % 0 % 0 m²/s² 0 0 0.95 3
23:00 0 J/kg -1.2 K 0 % 0 % 0 % 0 m²/s² 0 0 -0.18 3
 04:57     20:58    Daglengte: 16:01 Morgen
00:00 0 J/kg -1.4 K 0 % 0 % 0 % 0 m²/s² 0 0 -0.23 1
01:00 0 J/kg -1.4 K 0 % 0 % 0 % 0 m²/s² 0 0 -0.17 3
02:00 0 J/kg -1.0 K 0 % 0 % 0 % 0 m²/s² 0 0 0.38 3
03:00 0 J/kg 0.0 K 0 % 0 % 0 % 0 m²/s² 0 0 1.26 0
04:00 0 J/kg -0.2 K 0 % 0 % 0 % 0 m²/s² 0 0 0.67 0
05:00 0 J/kg -0.5 K 0 % 0 % 0 % 0 m²/s² 0 0 0.46 3
06:00 0 J/kg -0.3 K 0 % 0 % 0 % 0 m²/s² 0 0 0.75 3
07:00 0 J/kg -0.9 K 0 % 0 % 0 % 0 m²/s² 0 0 0.3 3
08:00 6 J/kg -1.1 K 0 % 0 % 0 % 0 m²/s² 0 0 0.1 1
09:00 44 J/kg -0.6 K 0 % 0 % 0 % 0 m²/s² 0 0 0.66 3
10:00 226 J/kg -1.1 K 0 % 0 % 0 % 0 m²/s² 0 0 0.4 1
11:00 514 J/kg -2.0 K 0 % 0 % 0 % 0 m²/s² 0 0 -0.74 3
12:00 694 J/kg -2.5 K 0 % 0 % 0 % 0 m²/s² 0 0 -0.82 3
13:00 805 J/kg -2.7 K 0 % 0 % 0 % 0 m²/s² 0 0 -0.63 3
14:00 876 J/kg -3.0 K 0 % 0 % 0 % 0 m²/s² 0 0 -0.45 3
15:00 931 J/kg -3.2 K 0 % 0 % 0 % 0 m²/s² 0 0 0.28 3
16:00 1043 J/kg -3.6 K 0 % 0 % 0 % 0 m²/s² 0 0 0.69 80
17:00 1117 J/kg -4.1 K 0 % 0 % 0 % 0 m²/s² 0 0 0.67 3
18:00 1074 J/kg -4.0 K 0 % 0 % 0 % 0 m²/s² 0 0 1.16 3
19:00 1098 J/kg -3.8 K 0 % 0 % 0 % 0 m²/s² 0 0 0.4 3
20:00 1194 J/kg -4.4 K 0 % 0 % 0 % 0 m²/s² 0 0 -1.01 81
21:00 1193 J/kg -4.7 K 0 % 0 % 0 % 0 m²/s² 0 0 -2.06 3
22:00 887 J/kg -3.8 K 0 % 0 % 0 % 0 m²/s² 0 0 -2.12 3
23:00 0 J/kg -1.7 K 0 % 0 % 0 % 0 m²/s² 0 0 0.52 3
 04:57     20:58    Daglengte: 16:01 Vrijdag 21 Jun
00:00 0 J/kg -3.2 K 0 % 0 % 0 % 0 m²/s² 0 0 -1.46 3
01:00 0 J/kg -2.5 K 0 % 0 % 0 % 0 m²/s² 0 0 -1.39 3
02:00 0 J/kg -2.0 K 0 % 0 % 0 % 0 m²/s² 0 0 -0.83 3
03:00 0 J/kg -1.2 K 0 % 0 % 0 % 0 m²/s² 0 0 0.6 80
04:00 0 J/kg -1.8 K 0 % 0 % 0 % 0 m²/s² 0 0 0.69 80
05:00 0 J/kg -2.0 K 0 % 0 % 0 % 0 m²/s² 0 0 0.34 2
06:00 0 J/kg -1.8 K 0 % 0 % 0 % 0 m²/s² 0 0 0.66 2
07:00 0 J/kg -1.6 K 0 % 0 % 0 % 0 m²/s² 0 0 0.95 2
08:00 1 J/kg -1.0 K 0 % 0 % 0 % 0 m²/s² 0 0 0.98 1
09:00 95 J/kg -1.1 K 0 % 0 % 0 % 0 m²/s² 0 0 0.22 1
10:00 321 J/kg -1.8 K 0 % 0 % 0 % 0 m²/s² 0 0 -0.57 2
11:00 508 J/kg -2.2 K 0 % 0 % 0 % 0 m²/s² 0 0 -0.97 2
12:00 669 J/kg -2.7 K 0 % 0 % 0 % 0 m²/s² 0 0 -1.2 3
13:00 805 J/kg -2.9 K 0 % 0 % 0 % 0 m²/s² 0 0 -1.28 3
14:00 855 J/kg -2.9 K 0 % 0 % 0 % 0 m²/s² 0 0 -0.89 3
15:00 1061 J/kg -3.3 K 0 % 0 % 0 % 0 m²/s² 0 0 -1.86 3
16:00 1011 J/kg -3.4 K 0 % 0 % 0 % 0 m²/s² 0 0 -2.32 3
17:00 923 J/kg -2.8 K 0 % 0 % 0 % 0 m²/s² 0 0 -1.24 3
18:00 1098 J/kg -3.7 K 0 % 0 % 0 % 0 m²/s² 0 0 -2.38 3
19:00 1236 J/kg -4.1 K 0 % 0 % 0 % 0 m²/s² 0 0 -2.78 3
20:00 1353 J/kg -4.8 K 0 % 0 % 0 % 0 m²/s² 0 0 -3.12 3
21:00 1380 J/kg -5.0 K 0 % 0 % 0 % 0 m²/s² 0 0 -3.71 3
22:00 993 J/kg -4.9 K 0 % 0 % 0 % 0 m²/s² 0 0 -3.79 3
23:00 633 J/kg -4.7 K 0 % 0 % 0 % 0 m²/s² 0 0 -4.16 3
 04:57     20:58    Daglengte: 16:01 Zaterdag 22 Jun
00:00 719 J/kg -4.8 K 0 % 0 % 0 % 0 m²/s² 0 0 -3.99 3
01:00 605 J/kg -3.7 K 0 % 0 % 0 % 0 m²/s² 0 0 -2.83 3
02:00 520 J/kg -2.7 K 0 % 0 % 0 % 0 m²/s² 0 0 -1.92 3
03:00 742 J/kg -3.9 K 0 % 0 % 0 % 0 m²/s² 0 0 -3.42 3
04:00 850 J/kg -4.4 K 0 % 0 % 0 % 0 m²/s² 0 0 -3.86 3
05:00 793 J/kg -4.0 K 0 % 0 % 0 % 0 m²/s² 0 0 -3.37 3
06:00 731 J/kg -3.6 K 0 % 0 % 0 % 0 m²/s² 0 0 -2.94 3
07:00 831 J/kg -3.5 K 0 % 0 % 0 % 0 m²/s² 0 0 -2.69 3
08:00 1041 J/kg -4.0 K 0 % 0 % 0 % 0 m²/s² 0 0 -3.28 3
09:00 1314 J/kg -4.7 K 0 % 0 % 0 % 0 m²/s² 0 0 -3.89 3
10:00 1639 J/kg -5.5 K 0 % 0 % 0 % 0 m²/s² 0 0 -4.6 3
11:00 1969 J/kg -6.3 K 0 % 0 % 0 % 0 m²/s² 0 0 -5.04 3
12:00 2186 J/kg -6.9 K 0 % 0 % 0 % 0 m²/s² 0 0 -5.67 3
Temp Baro Wind Neerslag
  EWN Forecast EWN WRFDA DWD ICON FMI HIRLAM MET Norway GFS
 04:56     20:57    Daglengte: 16:01 Vandaag
14:00 28.9° 1011.2 hPa 3.3 m/s 0.0 mm 27.5° 1011.9 hPa 4.4 m/s 0.1 mm 28.6° 1011.8 hPa 3.6 m/s -2.0 mm 30.7° 1010.6 hPa 3.4 m/s 0.0 mm 29.8° 1010.7 hPa 3.0 m/s 0.0 mm 29.3° 1011.9 hPa 4.2 m/s
17:00 25.9° 1010.5 hPa 2.9 m/s 1.4 mm 27.9° 1010.5 hPa 3.7 m/s 0.4 mm 28.9° 1009.7 hPa 3.3 m/s 0.1 mm 25.7° 1010.4 hPa 2.8 m/s 0.0 mm 24.4° 1011.0 hPa 2.9 m/s 2.8 mm 28.6° 1011.1 hPa 4.4 m/s
20:00 24.5° 1010.5 hPa 2.3 m/s 0.0 mm 21.7° 1011.0 hPa 6.1 m/s 1.9 mm 25.3° 1010.6 hPa 2.6 m/s 0.1 mm 26.2° 1010.2 hPa 2.0 m/s 0.0 mm 24.5° 1010.5 hPa 1.9 m/s 0.0 mm 25.2° 1011.4 hPa 1.0 m/s
23:00 21.0° 1011.3 hPa 0.8 m/s 0.0 mm 19.3° 1011.6 hPa 2.3 m/s 4.9 mm 21.7° 1011.5 hPa 0.2 m/s 0.0 mm 21.6° 1010.9 hPa 0.5 m/s 0.0 mm 21.0° 1011.3 hPa 1.6 m/s 0.0 mm 22.3° 1012.1 hPa 1.3 m/s
 04:57     20:58    Daglengte: 16:01 Morgen
02:00 19.4° 1011.0 hPa 1.1 m/s 0.0 mm 18.1° 1011.0 hPa 2.7 m/s 4.9 mm 19.3° 1011.4 hPa 0.7 m/s 0.0 mm 19.1° 1011.1 hPa 0.8 m/s 0.0 mm 20.4° 1011.0 hPa 1.0 m/s 0.0 mm 20.7° 1012.3 hPa 0.8 m/s
05:00 18.1° 1011.4 hPa 1.3 m/s 0.0 mm 17.3° 1010.9 hPa 2.7 m/s 4.9 mm 17.7° 1011.4 hPa 0.5 m/s 0.0 mm 18.0° 1011.6 hPa 1.8 m/s 0.0 mm 18.4° 1011.5 hPa 0.9 m/s 0.0 mm 19.7° 1011.9 hPa 0.5 m/s
08:00 22.1° 1012.1 hPa 1.2 m/s 0.0 mm 22.4° 1011.3 hPa 1.3 m/s 4.9 mm 21.4° 1012.4 hPa 1.2 m/s 0.0 mm 24.3° 1011.9 hPa 0.9 m/s 0.0 mm 22.0° 1012.3 hPa 1.5 m/s 0.0 mm 23.1° 1012.5 hPa 0.3 m/s
11:00 26.1° 1011.7 hPa 1.5 m/s 0.0 mm 25.9° 1011.5 hPa 0.9 m/s 4.9 mm 25.8° 1012.1 hPa 2.0 m/s 0.0 mm 28.7° 1011.0 hPa 1.5 m/s 0.0 mm 25.7° 1012.0 hPa 1.2 m/s 0.0 mm 28.6° 1011.9 hPa 1.2 m/s
14:00 28.8° 1010.9 hPa 1.6 m/s 0.0 mm 28.4° 1010.4 hPa 1.6 m/s 4.9 mm 28.6° 1011.2 hPa 3.0 m/s 0.0 mm 32.3° 1010.2 hPa 1.3 m/s 0.0 mm 27.1° 1011.2 hPa 0.7 m/s 0.0 mm 31.0° 1010.6 hPa 1.6 m/s
17:00 27.0° 1010.5 hPa 2.0 m/s 2.7 mm 29.0° 1009.5 hPa 1.1 m/s 5.0 mm 26.3° 1010.5 hPa 1.6 m/s 0.5 mm 31.0° 1009.8 hPa 1.9 m/s 0.0 mm 26.7° 1011.2 hPa 2.2 m/s 0.3 mm 29.5° 1010.2 hPa 2.6 m/s
20:00 24.6° 1011.6 hPa 1.6 m/s 0.0 mm 27.5° 1009.9 hPa 1.8 m/s 5.1 mm 21.5° 1013.7 hPa 3.8 m/s 4.6 mm 28.0° 1010.0 hPa 1.9 m/s 0.0 mm 23.9° 1012.1 hPa 1.0 m/s 0.0 mm 26.5° 1011.6 hPa 0.4 m/s
23:00 21.5° 1012.6 hPa 1.3 m/s 0.0 mm 22.7° 1011.0 hPa 6.1 m/s 5.3 mm 20.0° 1013.8 hPa 1.3 m/s 0.0 mm 21.6° 1011.4 hPa 0.7 m/s 0.0 mm 21.8° 1013.4 hPa 0.6 m/s 0.0 mm 19.2° 1014.0 hPa 5.4 m/s
 04:57     20:58    Daglengte: 16:01 Vrijdag 21 Jun
02:00 20.1° 1013.4 hPa 3.5 m/s 0.0 mm 20.4° 1012.3 hPa 7.1 m/s 5.4 mm 19.4° 1014.8 hPa 4.1 m/s 0.1 mm 20.1° 1011.9 hPa 1.5 m/s 0.0 mm 20.2° 1014.3 hPa 3.6 m/s 0.8 mm 19.2° 1014.9 hPa 2.5 m/s
05:00 19.3° 1013.9 hPa 3.8 m/s 0.0 mm 19.4° 1013.2 hPa 5.4 m/s 5.4 mm 18.7° 1015.6 hPa 3.5 m/s 0.7 mm 20.7° 1012.3 hPa 3.2 m/s 0.0 mm 19.2° 1014.7 hPa 5.5 m/s 0.0 mm 18.9° 1015.5 hPa 3.0 m/s
08:00 21.3° 1015.1 hPa 4.1 m/s 0.6 mm 21.2° 1014.4 hPa 5.7 m/s 5.9 mm 20.9° 1015.9 hPa 4.4 m/s 0.0 mm 24.6° 1012.9 hPa 4.1 m/s 0.0 mm 20.2° 1016.6 hPa 3.8 m/s 3.8 mm 21.2° 1016.4 hPa 3.8 m/s
11:00 24.1° 1015.9 hPa 3.5 m/s 0.0 mm 24.4° 1015.3 hPa 3.5 m/s 5.9 mm 24.1° 1016.1 hPa 4.2 m/s 0.0 mm 23.8° 1016.6 hPa 3.0 m/s 1.1 mm 24.1° 1016.4 hPa 3.6 m/s
14:00 25.7° 1014.8 hPa 3.2 m/s 0.0 mm 27.1° 1013.3 hPa 3.1 m/s 5.9 mm 25.1° 1015.5 hPa 3.2 m/s 0.0 mm 26.0° 1014.9 hPa 1.5 m/s 0.4 mm 27.2° 1015.3 hPa 3.8 m/s
17:00 26.2° 1014.3 hPa 3.0 m/s 0.0 mm 27.7° 1012.9 hPa 3.7 m/s 6.0 mm 24.1° 1015.2 hPa 2.7 m/s 0.1 mm 27.0° 1014.2 hPa 1.7 m/s 0.0 mm 27.3° 1014.6 hPa 3.1 m/s
20:00 23.8° 1015.4 hPa 2.0 m/s 0.0 mm 25.6° 1013.4 hPa 2.3 m/s 6.5 mm 22.5° 1015.9 hPa 1.8 m/s 0.1 mm 24.4° 1015.3 hPa 0.1 m/s 0.0 mm 24.3° 1014.7 hPa 2.6 m/s
23:00 20.4° 1016.7 hPa 2.1 m/s 0.0 mm 22.4° 1014.7 hPa 2.3 m/s 8.6 mm 19.7° 1017.1 hPa 1.4 m/s 0.0 mm 20.5° 1016.8 hPa 1.6 m/s 0.0 mm 21.5° 1016.0 hPa 2.3 m/s
 04:57     20:58    Daglengte: 16:01 Zaterdag 22 Jun
02:00 19.4° 1017.0 hPa 3.4 m/s 0.0 mm 20.3° 1014.2 hPa 3.2 m/s 14.0 mm 19.3° 1017.4 hPa 1.9 m/s 0.0 mm 19.3° 1017.3 hPa 3.6 m/s 0.0 mm 20.2° 1015.9 hPa 2.0 m/s
05:00 18.7° 1017.4 hPa 3.0 m/s 0.0 mm 20.2° 1013.9 hPa 1.8 m/s 14.6 mm 18.5° 1018.0 hPa 1.6 m/s 0.0 mm 18.6° 1017.6 hPa 3.1 m/s 0.0 mm 19.3° 1015.3 hPa 2.3 m/s
08:00 20.1° 1018.1 hPa 3.4 m/s 0.0 mm 22.2° 1014.3 hPa 1.7 m/s 14.6 mm 20.9° 1019.1 hPa 2.8 m/s 0.0 mm 19.9° 1018.3 hPa 3.7 m/s 1.5 mm 19.7° 1015.5 hPa 2.5 m/s
11:00 22.6° 1017.3 hPa 2.8 m/s 0.0 mm 25.7° 1014.0 hPa 2.6 m/s 14.6 mm 22.4° 1018.7 hPa 4.7 m/s 0.2 mm 22.1° 1017.5 hPa 2.5 m/s 21.8° 1015.0 hPa 2.4 m/s
14:00 24.8° 1016.4 hPa 2.2 m/s 0.0 mm 28.2° 1012.4 hPa 2.8 m/s 14.6 mm 24.4° 1017.7 hPa 3.8 m/s 0.0 mm 24.4° 1016.7 hPa 1.2 m/s 24.4° 1013.6 hPa 2.9 m/s
17:00 21.6° 1016.1 hPa 1.4 m/s 19.7 mm 21.3° 1016.4 hPa 1.3 m/s 25.1° 1012.8 hPa 3.3 m/s 19.7 mm
20:00 19.9° 1015.9 hPa 1.3 m/s 26.0 mm 19.7° 1016.2 hPa 1.3 m/s 22.3° 1012.9 hPa 1.5 m/s 26.0 mm
23:00 19.0° 1016.0 hPa 1.5 m/s 26.7 mm 18.9° 1016.2 hPa 1.5 m/s 21.0° 1014.0 hPa 1.9 m/s 26.7 mm
 04:57     20:58    Daglengte: 16:01 Zondag 23 Jun
02:00 18.1° 1016.0 hPa 1.7 m/s 27.3 mm 18.0° 1016.2 hPa 1.7 m/s 19.3° 1014.2 hPa 2.1 m/s 27.3 mm
05:00 18.2° 1016.3 hPa 2.4 m/s 27.3 mm 18.1° 1016.5 hPa 2.4 m/s 18.2° 1014.2 hPa 2.8 m/s 27.3 mm
08:00 18.3° 1016.6 hPa 3.1 m/s 27.3 mm 18.3° 1016.7 hPa 3.0 m/s 18.6° 1015.3 hPa 4.2 m/s 27.3 mm
11:00 20.2° 1017.0 hPa 3.7 m/s 27.5 mm 20.4° 1017.0 hPa 3.6 m/s 18.7° 1016.1 hPa 5.4 m/s 27.5 mm
14:00 22.2° 1017.3 hPa 4.3 m/s 27.7 mm 22.4° 1017.4 hPa 4.2 m/s 19.8° 1016.4 hPa 5.3 m/s 27.7 mm
17:00 21.9° 1017.6 hPa 4.3 m/s 27.7 mm 22.0° 1017.8 hPa 4.2 m/s 21.0° 1016.5 hPa 6.0 m/s 27.7 mm
20:00 21.4° 1018.1 hPa 4.2 m/s 27.8 mm 21.6° 1018.1 hPa 4.1 m/s 18.6° 1017.5 hPa 5.2 m/s 27.8 mm
23:00 20.5° 1019.0 hPa 4.2 m/s 28.2 mm 20.8° 1019.0 hPa 4.1 m/s 17.5° 1019.3 hPa 4.7 m/s 28.2 mm
 04:58     20:58    Daglengte: 16:00 Maandag 24 Jun
02:00 19.8° 1019.8 hPa 4.1 m/s 28.2 mm 20.0° 1019.8 hPa 4.1 m/s 17.2° 1020.1 hPa 4.7 m/s 28.2 mm
05:00 19.5° 1020.7 hPa 4.5 m/s 28.2 mm 19.8° 1020.6 hPa 4.5 m/s 17.2° 1020.7 hPa 4.5 m/s 28.2 mm
08:00 19.5° 1021.5 hPa 4.8 m/s 28.2 mm 19.5° 1021.5 hPa 4.9 m/s 19.1° 1021.9 hPa 4.1 m/s 28.2 mm
11:00 22.2° 1021.5 hPa 5.1 m/s 28.2 mm 22.1° 1021.4 hPa 5.2 m/s 22.7° 1022.3 hPa 4.2 m/s 28.2 mm
14:00 24.9° 1021.3 hPa 5.3 m/s 28.2 mm 24.8° 1021.3 hPa 5.4 m/s 25.4° 1021.6 hPa 4.5 m/s 28.2 mm
17:00 24.4° 1021.6 hPa 4.4 m/s 28.4 mm 24.2° 1021.5 hPa 4.4 m/s 26.4° 1021.6 hPa 4.4 m/s 28.4 mm
20:00 23.6° 1021.9 hPa 3.4 m/s 28.6 mm 23.6° 1021.8 hPa 3.4 m/s 23.9° 1022.5 hPa 2.9 m/s 28.6 mm
23:00 21.3° 1022.8 hPa 3.1 m/s 28.6 mm 21.3° 1022.7 hPa 3.1 m/s 21.2° 1024.4 hPa 2.2 m/s 28.6 mm
 04:58     20:58    Daglengte: 16:00 Dinsdag 25 Jun
02:00 19.0° 1023.7 hPa 2.9 m/s 28.6 mm 19.0° 1023.6 hPa 2.9 m/s 19.6° 1024.8 hPa 2.5 m/s 28.6 mm
05:00 19.6° 1024.2 hPa 3.0 m/s 28.6 mm 19.8° 1024.2 hPa 3.0 m/s 17.9° 1024.6 hPa 2.6 m/s 28.6 mm
08:00 20.6° 1024.7 hPa 3.1 m/s 28.6 mm 20.6° 1024.7 hPa 3.1 m/s 20.8° 1024.7 hPa 2.7 m/s 28.6 mm
11:00 24.0° 1024.4 hPa 2.8 m/s 28.6 mm 23.9° 1024.5 hPa 2.7 m/s 25.2° 1024.3 hPa 4.1 m/s 28.6 mm
14:00 27.3° 1024.1 hPa 2.3 m/s 28.6 mm 27.2° 1024.2 hPa 2.2 m/s 28.0° 1023.3 hPa 3.8 m/s 28.6 mm
17:00 26.9° 1023.8 hPa 1.5 m/s 28.6 mm 26.8° 1023.9 hPa 1.4 m/s 28.2° 1022.7 hPa 3.0 m/s 28.6 mm
20:00 26.3° 1023.5 hPa 0.8 m/s 28.6 mm 26.4° 1023.5 hPa 0.6 m/s 25.6° 1023.0 hPa 2.7 m/s 28.6 mm
23:00 23.3° 1024.2 hPa 1.1 m/s 28.6 mm 23.4° 1024.1 hPa 1.0 m/s 22.5° 1024.8 hPa 2.2 m/s 28.6 mm
 04:58     20:58    Daglengte: 16:00 Woensdag 26 Jun
02:00 20.4° 1024.7 hPa 1.4 m/s 28.6 mm 20.4° 1024.7 hPa 1.4 m/s 20.6° 1024.4 hPa 1.6 m/s 28.6 mm
05:00 21.3° 1024.8 hPa 1.1 m/s 28.6 mm 21.5° 1024.8 hPa 1.0 m/s 19.1° 1023.8 hPa 1.5 m/s 28.6 mm
08:00 22.7° 1024.9 hPa 0.7 m/s 28.6 mm 22.7° 1025.0 hPa 0.7 m/s 22.6° 1023.8 hPa 1.2 m/s 28.6 mm
11:00 25.9° 1024.3 hPa 2.0 m/s 28.6 mm 25.8° 1024.5 hPa 2.0 m/s 27.6° 1023.1 hPa 1.9 m/s 28.6 mm
14:00 29.0° 1023.7 hPa 3.3 m/s 28.6 mm 28.8° 1023.9 hPa 3.4 m/s 30.6° 1022.1 hPa 2.8 m/s 28.6 mm
20:00 26.5° 1022.0 hPa 2.8 m/s 28.6 mm 26.4° 1022.1 hPa 2.9 m/s 27.7° 1021.3 hPa 2.0 m/s 28.6 mm
 04:59     20:58    Daglengte: 15:59 Donderdag 27 Jun
02:00 20.7° 1021.7 hPa 1.5 m/s 28.6 mm 20.5° 1021.7 hPa 1.6 m/s 22.9° 1022.1 hPa 0.6 m/s 28.6 mm
08:00 23.7° 1020.3 hPa 2.3 m/s 28.6 mm 23.5° 1020.2 hPa 2.4 m/s 25.4° 1021.0 hPa 1.6 m/s 28.6 mm
14:00 31.5° 1018.2 hPa 2.6 m/s 28.6 mm 31.3° 1018.1 hPa 2.4 m/s 33.2° 1018.9 hPa 4.5 m/s 28.6 mm
20:00 28.0° 1016.6 hPa 1.7 m/s 28.6 mm 27.9° 1016.6 hPa 1.6 m/s 29.4° 1016.8 hPa 2.5 m/s 28.6 mm
 04:59     20:58    Daglengte: 15:59 Vrijdag 28 Jun
02:00 21.2° 1016.5 hPa 1.6 m/s 28.6 mm 20.9° 1016.5 hPa 1.7 m/s 24.0° 1016.7 hPa 0.8 m/s 28.6 mm
08:00 28.8° 1015.6 hPa 3.0 m/s 28.6 mm 29.0° 1015.6 hPa 3.1 m/s 26.0° 1015.8 hPa 1.5 m/s 28.6 mm
14:00 35.8° 1014.3 hPa 3.2 m/s 28.6 mm 35.8° 1014.3 hPa 3.2 m/s 35.9° 1014.7 hPa 3.0 m/s 28.6 mm
20:00 31.3° 1012.9 hPa 2.3 m/s 28.6 mm 31.3° 1012.8 hPa 2.3 m/s 31.6° 1014.4 hPa 2.1 m/s 28.6 mm
 05:00     20:58    Daglengte: 15:58 Zaterdag 29 Jun
02:00 25.3° 1012.7 hPa 2.9 m/s 28.6 mm 25.2° 1012.3 hPa 3.1 m/s 26.3° 1016.7 hPa 0.9 m/s 28.6 mm
08:00 21.9° 1013.4 hPa 2.0 m/s 0.7 mm
14:00 28.2° 1012.5 hPa 2.1 m/s 1.0 mm
20:00 24.9° 1012.1 hPa 1.8 m/s 0.2 mm
 05:00     20:58    Daglengte: 15:58 Zondag 30 Jun
02:00 17.8° 1013.6 hPa 1.2 m/s 0.4 mm
08:00 20.9° 1014.0 hPa 1.2 m/s 0.4 mm
14:00 27.1° 1012.8 hPa 0.2 m/s 1.1 mm
20:00 23.9° 1012.2 hPa 0.5 m/s 2.5 mm
 05:01     20:58    Daglengte: 15:57 Maandag 01 Jul
02:00 18.3° 1013.4 hPa 1.4 m/s 1.4 mm
08:00 20.4° 1013.7 hPa 1.6 m/s 1.4 mm
14:00 26.2° 1012.4 hPa 1.1 m/s 1.4 mm
20:00 23.0° 1011.9 hPa 1.3 m/s 2.2 mm
 05:02     20:58    Daglengte: 15:56 Dinsdag 02 Jul
02:00 17.0° 1013.2 hPa 2.2 m/s 0.8 mm
08:00 19.3° 1013.9 hPa 2.6 m/s 1.0 mm
14:00 25.1° 1012.9 hPa 1.9 m/s 0.8 mm
20:00 22.1° 1012.8 hPa 1.3 m/s 1.3 mm
 05:02     20:57    Daglengte: 15:55 Woensdag 03 Jul
02:00 16.3° 1014.2 hPa 1.9 m/s 1.3 mm
08:00 18.3° 1014.9 hPa 2.6 m/s 1.5 mm
14:00 23.1° 1014.6 hPa 2.5 m/s 2.9 mm
20:00 20.3° 1014.5 hPa 2.1 m/s 2.7 mm
 05:03     20:57    Daglengte: 15:54 Donderdag 04 Jul
02:00 14.7° 1015.7 hPa 1.9 m/s 2.7 mm
08:00 17.8° 1016.3 hPa 2.1 m/s 1.5 mm
FMI Hirlam - 7.5 km EWN WRFDA - 12 km DWD ICON - 7 km GFS - 25 km Basiskaart






























































Updatetijd (Europe/Amsterdam) Resolutie Lengte Stap
FMI Hirlam 07:00, 13:00, 19:00, 01:00 7.5 km 49h 1h
EWN WRFDA 10:15, 16:15, 22:15, 04:15 12 km 73h 1h
DWD ICON 11:45, 17:45, 23:45, 05:45 7 km 75h 1h
GFS 08:45, 14:45, 20:45, 02:45 25 km 237h 3h
30+ mm
25-30 mm
20-25 mm
15-20 mm
10-15 mm
6-10 mm
4-6 mm
2-4 mm
1-2 mm
0.5-1 mm
0.2-0.5 mm
0.1-0.2 mm
30+ mm
25-30 mm
20-25 mm
15-20 mm
10-15 mm
6-10 mm
4-6 mm
2-4 mm
1-2 mm
0.5-1 mm
0.2-0.5 mm
0.1-0.2 mm
Sneeuwval
Natte sneeuw
Hagel
Vorst
30+ mm
25-30 mm
20-25 mm
15-20 mm
10-15 mm
6-10 mm
4-6 mm
2-4 mm
1-2 mm
0.5-1 mm
0.2-0.5 mm
0.1-0.2 mm
Sneeuwval
Natte sneeuw
Hagel
Vorst
Onweer
50 mm
40 mm
30 mm
26 mm
22 mm
18 mm
14 mm
10 mm
9 mm
8 mm
7 mm
6 mm
5 mm
4.5 mm
4 mm
3.5 mm
3 mm
2.5 mm
2 mm
1.5 mm
1 mm
0.8 mm
0.6 mm
0.4 mm
0.2 mm
0.05 mm
35°
30°
25°
20°
15°
10°
-5°
-10°
-15°
-20°
-25°
-30°
-35°
33> m/s
29 m/s
25 m/s
21 m/s
17 m/s
14 m/s
11 m/s
8 m/s
5 m/s
3 m/s
0 m/s
2600 J/kg
2400 J/kg
2200 J/kg
2000 J/kg
1800 J/kg
1600 J/kg
1400 J/kg
1200 J/kg
1000 J/kg
800 J/kg
600 J/kg
400 J/kg
200 J/kg
70 dBZ
65 dBZ
60 dBZ
55 dBZ
50 dBZ
45 dBZ
40 dBZ
35 dBZ
30 dBZ
25 dBZ
20 dBZ
15 dBZ
10 dBZ
5 dBZ
-1 K
-2 K
-3 K
-4 K
-5 K
-6 K
-7 K
-8 K
-9 K
950 m²/s²
900 m²/s²
850 m²/s²
800 m²/s²
750 m²/s²
700 m²/s²
650 m²/s²
600 m²/s²
550 m²/s²
500 m²/s²
450 m²/s²
400 m²/s²
350 m²/s²
300 m²/s²
250 m²/s²
200 m²/s²
150 m²/s²
100 m²/s²
46 m/s
44 m/s
42 m/s
40 m/s
38 m/s
36 m/s
34 m/s
32 m/s
30 m/s
28 m/s
26 m/s
24 m/s
22 m/s
20 m/s
16 m/s
12 m/s
8 m/s
4 m/s
30 m/s
28 m/s
26 m/s
24 m/s
22 m/s
20 m/s
18 m/s
16 m/s
14 m/s
12 m/s
10 m/s
8 m/s
6 m/s
4 m/s
2 m/s
3.0
2.8
2.6
2.4
2.2
2.0
1.8
1.6
1.4
1.2
1.0
0.8
0.6
0.4
0.2
15
14
13
12
11
10
9
8
7
6
5
4
3
2
1
90%
80%
70%